Temp
24 22 23 23 25 25 31 33 34 33 30 29 30 29 26 27 28 24 26 24 24 23 23 23 23 23 23 23 23 23 23 23 23 23 23 23 22 22 22 22 22 22 21 21 21 21 21 21 21
24 22 24 24 25 30 31 34 33 31 31 30 30 29 29 28 30 28 26 25 25 23 23 23 23 23 23 23 23 23 23 23 23 23 23 23 22 22 22 22 22 22 22 21 21 21 21 21 21
24 26 25 25 30 30 32 34 34 34 33 32 30 32 31 30 31 29 27 26 25 24 24 23 23 23 23 23 23 23 23 23 23 23 22 23 22 22 21 22 22 22 22 22 21 21 21 21 21
26 25 27 28 33 34 34 35 35 34 34 33 32 30 31 31 30 29 28 27 25 24 24 23 23 23 23 23 23 23 23 22 23 23 22 22 22 21 21 22 22 22 22 22 21 21 21 21 21
23 27 28 29 33 35 36 36 35 34 33 32 31 30 30 31 29 29 27 26 26 24 23 23 23 23 23 23 23 23 23 23 23 22 22 22 22 21 21 21 22 22 22 22 22 21 21 21 21
22 21 28 28 32 37 37 36 36 35 33 32 30 29 29 31 31 27 27 26 27 25 23 23 23 23 22 23 23 22 22 22 22 22 22 22 22 22 21 21 21 22 22 22 22 21 21 21 21
24 24 28 29 32 36 37 36 35 35 34 33 32 28 28 30 31 29 27 27 25 24 24 24 23 22 22 22 22 22 22 22 22 22 22 22 22 22 22 22 22 22 22 22 22 22 21 21 21
29 29 31 32 31 33 36 36 35 35 35 34 33 29 28 30 31 30 28 26 25 25 25 25 25 24 23 22 22 22 21 22 22 22 22 22 21 22 22 21 22 22 22 22 21 22 21 21 21
32 29 30 33 32 36 35 35 37 36 35 34 34 32 31 31 31 29 28 26 26 25 25 25 25 25 23 23 23 23 23 22 22 22 22 22 22 22 23 23 22 22 23 22 21 21 22 22 22
31 28 32 35 34 33 36 32 31 35 34 32 32 32 31 31 31 29 28 27 26 26 25 25 25 25 24 23 23 24 23 24 23 23 23 23 23 22 23 22 23 22 22 22 22 22 22 21 22
33 30 34 35 37 33 32 30 29 31 32 32 31 31 31 31 30 30 30 30 26 26 25 25 25 25 24 24 24 24 23 24 24 23 23 23 23 23 23 23 23 22 22 22 22 21 21 22 22
35 36 35 36 37 37 32 30 30 33 34 34 32 32 31 30 29 30 29 30 29 27 26 26 26 25 25 25 25 24 24 23 23 23 23 23 23 23 23 23 22 22 22 22 22 22 22 22 22
34 36 38 37 38 35 32 31 31 31 32 34 33 32 31 30 30 31 31 30 30 28 27 26 26 25 25 26 25 25 24 24 23 24 23 24 23 24 23 22 22 23 23 22 21 21 21 21 22
36 38 39 39 39 34 31 31 34 34 34 34 33 31 31 30 30 31 31 31 30 29 28 27 26 26 26 24 24 25 24 24 23 23 23 23 22 23 24 23 23 23 22 21 22 22 22 21 21
39 38 38 40 38 33 33 31 33 33 32 32 33 33 32 30 32 31 31 31 30 30 29 28 27 26 26 25 24 24 24 23 23 23 22 22 22 23 23 23 22 22 22 22 23 22 20 21 22
37 35 35 37 38 35 34 30 31 31 30 30 30 34 32 30 31 32 32 31 30 29 28 27 27 26 25 24 24 23 23 23 22 21 20 22 22 23 23 22 22 22 22 22 23 22 23 23 21
32 31 32 33 36 37 36 32 32 30 30 30 29 31 32 30 30 32 32 31 30 30 28 27 26 26 25 24 23 23 22 21 21 21 21 22 22 23 23 22 21 21 21 21 21 22 21 21 23
32 31 32 33 35 35 35 33 33 32 32 32 31 30 32 31 30 32 32 31 30 29 28 27 26 25 24 24 23 22 21 21 20 21 22 22 21 22 22 22 21 22 22 20 20 21 21 21 23
34 33 34 34 36 34 34 33 34 32 31 30 25 28 31 31 31 32 32 31 30 29 28 27 26 25 24 24 23 22 22 22 22 21 22 22 21 22 22 21 21 22 22 22 22 23 22 23 23
35 34 33 34 36 35 34 34 35 32 31 30 25 28 30 29 31 31 32 30 30 28 27 26 26 24 24 24 23 23 23 23 22 23 22 22 22 22 22 21 22 22 22 23 23 23 23 24 24
36 33 34 34 36 36 33 34 33 32 32 32 30 30 27 27 31 30 30 30 29 28 27 26 26 25 24 23 23 23 22 22 22 23 22 22 22 22 22 22 22 22 22 22 22 22 23 23 23
34 36 37 37 33 31 35 31 31 31 32 32 31 28 28 27 31 30 30 30 29 28 27 27 25 25 24 23 23 23 23 23 23 23 23 23 23 23 22 22 22 22 21 21 21 22 22 22 22
35 37 36 37 34 36 34 31 32 29 30 32 32 33 31 33 31 30 30 30 30 29 27 26 25 24 23 23 23 23 23 24 24 23 23 23 23 22 22 22 21 21 21 20 20 21 21 21 21
37 36 35 35 32 29 32 31 30 29 30 32 30 32 34 33 32 31 30 31 31 28 26 25 24 24 23 23 23 23 24 23 23 23 23 23 23 22 22 21 21 20 20 19 19 20 20 20 21
36 34 28 29 28 28 30 31 30 33 33 34 33 34 34 33 32 30 29 29 29 27 25 24 24 24 23 23 23 23 23 24 24 23 23 23 22 21 21 21 21 20 19 19 19 20 20 20 20
32 31 27 30 29 29 33 32 33 36 36 36 36 34 34 30 23 22 25 29 28 27 25 25 24 24 23 23 23 23 23 23 22 22 21 22 21 21 20 20 21 20 18 19 19 19 20 20 20
33 32 32 31 32 29 29 31 33 30 27 33 36 35 33 27 25 24 29 29 28 28 25 25 24 24 23 23 23 23 21 21 20 20 20 21 21 21 21 21 20 20 20 19 20 20 20 20 20
34 34 32 28 30 30 30 30 29 28 27 31 28 32 31 31 31 31 30 29 28 29 27 26 25 24 23 23 23 22 22 20 20 20 20 21 20 21 21 21 21 20 20 19 20 20 20 19 19
33 32 33 29 29 28 27 27 27 26 25 26 25 27 32 31 31 30 30 29 29 27 25 24 24 24 23 23 22 22 22 22 19 20 20 20 20 21 21 21 20 20 19 19 19 19 20 19 19
34 34 31 27 29 27 26 27 29 25 24 28 27 23 33 32 31 30 29 29 28 24 25 24 23 22 22 21 22 21 21 21 21 21 21 20 21 20 21 20 20 20 19 19 19 19 18 18 18
Height
780 787 788 792 805 798 786 778 755 764 773 764 759 771 786 782 790 819 796 799 800 805 808 810 811 812 814 816 816 817 818 819 821 823 824 826 828 829 830 830 831 831 833 834 834 835 836 836 838
781 788 789 786 809 801 795 763 769 769 765 761 764 770 777 788 776 789 796 798 799 806 808 810 811 813 814 816 817 818 819 821 822 823 825 826 828 828 829 830 832 832 833 835 836 836 837 838 839
787 786 794 795 785 800 794 765 759 756 754 760 771 762 772 782 777 785 792 796 800 805 809 811 812 813 814 816 818 819 820 822 823 824 825 826 828 829 830 831 832 834 835 836 837 838 839 840 840
786 786 781 800 783 767 766 761 756 760 759 759 764 781 774 776 779 787 792 798 802 805 808 809 811 813 815 817 818 820 821 823 824 825 826 827 829 830 832 832 833 834 836 837 838 840 840 841 841
785 790 803 803 780 760 750 748 751 763 765 768 769 785 784 781 785 788 794 796 800 806 809 810 811 813 816 819 821 822 822 822 824 825 827 829 830 832 833 835 835 835 837 838 839 840 841 842 842
801 810 815 820 787 753 746 744 749 758 764 772 778 786 789 785 786 791 792 796 799 802 807 810 813 816 818 819 820 822 824 826 827 827 828 829 831 832 834 835 836 836 836 837 838 839 840 842 843
800 814 814 801 793 763 756 743 758 761 764 770 770 791 789 786 787 789 793 796 800 804 806 810 814 817 819 820 821 823 825 827 829 830 830 831 832 833 834 834 834 835 837 837 838 839 840 842 842
778 791 801 790 796 781 751 752 751 757 762 758 758 790 794 785 787 790 794 796 800 804 806 810 813 816 819 821 823 826 827 827 828 828 830 831 832 832 832 834 836 836 837 837 838 838 839 840 841
763 801 808 787 790 766 748 759 749 748 760 760 759 768 778 784 788 791 794 798 800 804 805 809 811 813 817 820 822 822 824 827 827 828 828 829 830 831 831 831 834 836 837 838 839 840 841 841 841
770 803 790 763 771 772 758 774 779 763 769 775 774 775 780 786 789 790 793 797 799 802 806 808 810 811 814 816 820 820 821 823 825 826 827 829 829 831 833 834 833 834 836 838 840 841 842 842 842
763 789 763 760 755 757 766 779 786 781 780 774 780 779 780 786 789 790 791 793 797 801 806 808 810 812 814 816 818 819 821 820 823 825 827 828 829 830 832 833 833 833 835 838 840 841 842 842 842
775 754 751 744 746 755 777 786 782 776 765 760 768 773 778 783 787 788 790 791 794 800 804 808 809 813 814 816 815 814 818 821 822 823 825 827 826 828 829 830 832 833 833 837 838 840 842 841 840
771 753 740 737 739 755 757 772 791 781 765 764 768 772 777 780 784 785 786 789 793 798 802 806 809 811 813 813 814 813 816 817 820 820 820 822 824 826 829 830 832 833 833 835 833 838 840 841 840
745 743 731 730 734 750 765 774 757 764 765 772 774 778 777 779 783 785 786 787 791 796 800 804 807 809 811 812 814 815 815 816 816 818 817 820 822 825 828 829 831 832 833 834 831 832 835 836 836
736 751 740 734 737 764 751 781 769 752 759 772 776 775 777 778 782 784 786 787 789 794 797 801 806 807 808 812 814 813 812 813 814 816 817 820 821 823 824 826 829 832 830 831 830 829 834 834 834
752 754 778 748 738 750 756 800 766 758 763 767 775 769 773 775 779 782 784 786 789 792 795 799 802 804 806 809 811 810 807 808 810 812 816 819 820 820 823 825 826 829 830 829 827 827 826 830 831
769 800 789 773 743 747 754 784 759 758 759 764 769 773 770 772 775 779 782 785 788 789 793 797 800 802 804 806 808 808 807 807 809 812 815 817 817 817 820 823 824 825 827 826 826 823 824 826 828
796 799 788 784 757 753 761 765 759 750 754 751 762 773 770 774 775 775 777 782 786 788 791 794 798 802 804 805 806 808 808 808 811 812 813 813 814 814 818 819 820 822 822 822 822 821 824 826 825
769 777 786 776 743 764 762 760 750 750 754 760 784 777 772 775 769 770 773 777 782 784 788 791 795 799 802 804 805 805 805 807 809 811 811 811 813 815 816 817 819 820 820 818 817 817 819 821 822
766 780 788 770 752 763 759 758 738 751 765 776 778 766 755 764 765 767 770 775 778 780 783 789 794 800 801 802 804 804 804 805 807 808 809 809 811 813 815 815 816 817 816 816 818 818 819 819 820
761 780 776 774 758 753 763 765 761 759 739 745 754 745 749 755 760 761 765 769 773 776 780 787 791 794 798 801 802 803 804 805 807 809 808 808 808 810 812 814 814 815 815 816 817 818 818 818 818
773 744 746 754 779 801 749 812 775 763 756 750 751 753 745 749 751 758 765 769 771 773 778 783 787 793 797 799 802 803 804 805 806 808 810 810 810 809 810 811 813 813 814 814 815 816 816 815 815
758 736 746 746 765 760 766 797 781 769 767 749 741 738 743 738 747 757 761 765 769 773 774 780 786 790 796 799 801 803 805 806 806 808 810 811 810 810 810 810 811 810 809 811 811 812 813 813 811
731 745 750 752 772 812 782 790 795 780 762 746 743 734 728 739 748 754 757 761 765 772 776 780 786 791 796 798 802 802 804 805 807 808 809 810 811 812 811 810 809 809 810 810 811 811 811 809 809
740 764 817 819 823 828 780 785 781 746 739 735 736 727 730 739 750 759 759 761 763 771 778 780 787 792 797 799 801 802 803 803 805 808 809 810 811 814 813 812 811 810 811 811 811 810 810 809 808
760 771 817 828 829 813 768 791 770 732 729 723 722 724 731 751 764 778 771 762 766 773 778 781 788 793 798 800 800 802 804 804 804 804 809 813 813 812 812 813 812 813 812 813 812 812 812 810 807
757 772 752 786 777 805 794 774 753 747 760 739 728 727 735 747 752 756 766 764 768 773 778 780 786 791 798 801 801 802 804 803 805 811 810 815 815 814 813 814 814 814 813 813 813 812 810 809 808
739 735 779 790 814 821 796 790 788 773 766 745 755 738 736 739 747 752 756 761 767 769 772 774 784 791 797 798 800 802 804 805 805 811 812 816 817 815 814 814 814 814 814 813 812 812 811 810 810
748 760 755 769 785 816 825 806 761 765 761 755 767 760 735 739 745 748 751 756 761 766 771 780 789 792 794 797 800 802 803 806 809 811 816 817 818 817 816 815 815 816 815 814 814 814 813 812 810
725 741 753 797 798 791 801 795 746 772 770 763 755 777 734 733 739 741 747 748 759 771 775 779 785 788 795 799 801 801 804 807 811 814 816 818 818 818 817 817 817 818 818 816 816 817 815 813 810
Wind_Speed
15 19 15 8 3 2 8 11 7 15 9 8 12 6 7 5 2 5 24 32 30 26 23 20 19 19 18 17 16 15 16 16 14 13 13 12 12 12 12 12 10 11 9 9 10 10 10 11 10
15 13 7 3 2 7 4 12 13 19 16 16 14 14 9 8 12 21 20 33 27 25 22 21 20 19 18 16 15 15 16 15 13 12 11 11 11 11 10 10 11 10 10 7 8 9 9 8 9
8 11 3 3 3 6 9 12 14 19 21 16 7 14 7 16 17 11 36 28 30 24 22 21 19 19 17 16 15 14 15 14 12 11 11 10 10 11 9 8 6 7 9 8 7 8 8 7 9
2 4 3 3 5 8 15 14 17 20 19 16 17 12 15 23 21 24 35 33 30 24 23 21 19 17 16 16 15 14 14 13 10 9 9 8 8 10 10 7 6 6 6 7 7 7 7 8 7
24 5 3 5 5 12 11 17 17 14 19 19 19 17 17 22 34 35 36 36 29 23 22 20 18 17 16 15 13 13 13 14 11 9 7 6 6 7 8 9 7 6 6 6 6 7 6 6 6
5 1 4 4 4 13 11 14 14 16 21 20 20 18 10 23 21 33 38 30 24 26 23 19 17 16 15 14 13 13 11 10 10 9 8 7 5 4 5 6 7 6 7 6 6 6 7 7 6
7 5 4 9 12 12 16 17 11 10 16 14 20 14 8 11 18 34 30 26 24 23 23 19 16 14 13 12 12 11 11 10 7 6 6 6 5 4 4 5 5 5 5 6 5 5 7 7 7
6 3 4 1 5 6 17 13 10 8 9 22 22 7 14 15 21 32 31 33 27 22 19 18 14 12 10 10 8 8 7 7 7 7 5 5 6 6 6 6 5 3 4 5 6 6 8 9 8
8 3 3 3 8 2 13 12 12 13 17 14 8 18 21 29 24 29 27 30 28 23 20 17 16 12 10 8 8 8 9 8 8 8 8 7 8 6 6 4 4 3 3 5 5 5 6 8 10
5 4 5 4 8 3 10 21 11 14 14 18 19 18 26 25 23 21 20 21 26 27 23 20 17 14 15 12 8 9 10 10 11 10 8 7 6 7 7 11 5 7 5 5 4 5 5 8 9
3 6 9 15 11 13 23 25 17 4 11 13 17 14 15 19 16 19 19 19 30 28 23 21 16 14 13 14 10 7 11 10 12 10 8 5 6 7 9 5 4 7 5 5 4 6 9 9 12
6 17 19 8 12 7 26 8 9 12 11 18 16 16 13 9 10 16 18 23 20 28 24 21 16 15 11 10 16 11 14 17 12 18 15 8 9 5 2 10 10 10 3 4 8 12 12 14 14
11 25 23 19 15 18 21 27 5 9 7 16 16 15 14 11 14 19 19 26 22 25 24 23 16 16 9 8 10 11 19 10 12 10 17 15 9 12 7 10 10 6 7 5 3 14 15 19 19
17 19 8 9 10 19 20 7 15 5 6 6 13 10 11 11 14 18 19 20 24 22 22 22 16 16 11 8 8 10 5 8 10 11 12 13 10 10 11 5 8 9 5 6 3 11 28 30 22
17 10 8 3 7 8 19 3 14 12 12 2 4 10 9 11 19 17 18 20 24 21 20 20 19 15 12 10 7 7 10 12 12 10 10 10 11 11 8 8 9 7 7 7 3 12 25 25 18
15 5 2 6 3 11 10 7 14 9 11 7 5 12 11 9 16 21 20 19 18 21 21 22 18 15 11 7 7 10 12 13 12 9 12 10 9 6 6 8 10 10 8 9 13 20 17 25 23
8 5 11 11 19 14 4 5 18 10 9 10 8 12 12 11 12 21 22 20 20 20 22 20 18 14 9 8 6 7 10 9 2 4 5 6 11 11 8 8 9 8 8 11 13 8 13 23 21
4 6 13 18 16 17 11 10 10 18 18 14 10 10 11 10 11 25 25 22 21 22 22 19 17 11 9 5 4 4 4 3 3 2 1 1 7 11 11 11 8 9 11 8 5 6 11 21 18
8 10 11 7 17 6 15 14 15 16 14 11 14 8 5 8 14 26 28 28 26 25 24 19 15 13 14 8 5 2 1 3 3 1 1 1 2 6 10 11 9 5 9 8 8 11 15 17 17
7 8 9 13 23 4 15 17 10 16 10 8 16 16 18 12 13 17 26 29 31 29 26 21 15 17 14 8 8 3 1 2 2 2 2 2 3 3 3 4 6 5 8 8 7 6 12 14 12
6 15 9 18 8 18 7 8 8 2 15 21 27 22 10 16 17 17 19 27 30 30 27 23 19 16 11 9 10 5 6 5 3 1 3 3 2 1 2 3 5 6 5 6 8 6 5 10 9
5 7 10 11 15 9 6 4 4 7 4 14 17 9 13 17 18 15 17 21 27 29 26 24 21 17 12 13 7 5 8 5 3 3 2 2 1 2 5 4 2 5 5 6 7 7 9 9 12
5 10 8 6 11 2 5 4 2 4 5 6 4 8 19 21 20 18 17 23 25 29 27 22 20 15 15 12 10 9 5 4 5 3 2 1 0 3 2 5 6 8 10 9 8 7 7 5 8
8 8 7 5 2 4 6 2 4 6 9 5 9 13 21 21 20 17 23 26 23 26 27 20 16 15 14 14 7 7 6 4 6 2 1 4 4 4 3 6 8 11 11 10 8 8 8 9 9
5 2 3 3 4 5 6 7 7 3 5 7 9 11 16 19 18 9 9 15 21 24 25 19 15 15 10 7 7 5 2 5 3 4 7 10 16 8 6 7 10 10 9 8 8 9 9 8 8
9 8 6 6 3 4 8 3 3 2 5 6 6 9 13 23 25 17 26 17 23 24 23 17 18 12 6 6 5 5 3 2 7 11 8 8 10 10 9 8 9 11 9 9 10 9 9 8 9
10 4 10 2 3 2 4 6 3 17 14 8 3 7 11 27 26 22 20 20 25 23 23 21 17 13 8 8 7 4 4 5 13 8 10 6 8 9 8 8 9 9 12 11 10 12 14 12 12
8 5 2 3 3 5 1 0 4 4 4 11 18 6 9 12 21 18 15 22 27 26 24 24 18 14 11 10 9 5 6 2 3 8 7 3 7 8 9 8 9 10 10 10 11 14 15 15 16
2 5 3 3 4 5 3 6 7 10 8 15 9 18 9 10 12 12 15 24 25 24 28 24 21 19 16 12 9 8 9 8 9 8 9 7 7 8 8 9 9 11 11 11 11 11 12 13 15
8 6 7 5 9 2 5 6 9 8 12 6 13 24 8 9 8 9 11 22 22 26 28 25 23 21 18 14 8 6 13 15 11 11 8 7 8 7 9 10 11 10 11 14 14 13 11 12 13
Wind_Direction
164 178 194 230 276 209 77 68 35 77 62 71 71 105 124 104 122 154 124 134 134 138 137 136 135 135 138 137 133 133 134 133 130 127 125 118 113 112 106 98 107 109 106 111 113 116 114 114 118
161 160 207 280 218 74 51 87 67 103 111 98 90 94 85 88 111 124 122 134 132 131 138 137 136 136 138 140 139 138 141 141 140 138 137 130 124 119 116 107 107 107 117 112 123 122 122 127 128
158 209 277 229 286 91 78 64 86 90 94 89 101 78 68 115 126 114 137 132 130 140 142 136 135 135 137 139 142 142 144 145 149 150 149 143 137 133 133 134 129 118 108 121 123 128 135 138 141
212 14 250 315 117 94 102 93 72 89 80 106 107 72 81 98 103 128 135 130 133 142 144 140 138 138 139 138 140 144 146 149 155 159 162 155 154 147 144 141 145 141 129 123 131 144 141 146 152
35 304 329 286 288 109 115 115 111 104 105 102 93 99 97 106 112 121 128 135 136 137 142 141 141 142 143 143 140 141 148 153 160 164 171 177 168 163 151 148 144 141 140 152 145 148 156 160 162
111 176 340 306 238 107 104 99 104 115 110 110 98 104 109 130 134 130 134 137 135 139 144 141 140 140 142 144 146 150 154 155 163 171 174 181 197 193 159 146 143 143 150 163 164 170 174 180 180
131 150 253 265 359 79 99 91 84 93 125 118 134 122 146 143 148 133 134 133 137 140 139 141 140 141 144 149 151 153 153 156 164 169 188 194 192 205 205 184 174 168 162 159 174 185 186 190 190
135 154 246 124 280 9 96 97 115 120 88 131 140 145 155 150 133 133 134 136 141 140 137 138 136 143 147 148 150 152 164 168 172 176 198 207 205 217 228 226 205 205 170 188 189 197 198 196 201
149 76 267 174 218 184 109 112 101 86 77 74 103 134 143 148 151 138 137 136 142 147 149 153 141 142 150 154 165 174 179 183 184 187 198 219 223 225 244 247 216 238 239 214 204 212 215 219 221
94 130 255 111 355 309 87 50 3 116 99 90 95 117 137 146 154 139 151 148 151 156 161 164 156 157 168 179 190 195 194 197 207 207 200 219 218 233 248 254 237 239 247 231 222 232 235 232 230
124 219 215 236 221 233 92 101 298 253 128 137 136 136 141 151 151 157 161 166 161 170 163 169 164 166 162 182 186 218 217 206 209 208 204 178 226 216 223 196 233 245 269 269 271 251 245 244 239
319 270 257 250 208 122 69 92 236 246 151 139 140 146 146 162 156 177 169 171 159 164 167 169 169 172 178 203 206 205 225 226 216 218 208 191 211 221 193 196 217 213 180 247 291 277 264 244 228
217 250 255 242 162 101 90 74 320 346 46 128 144 150 155 165 167 182 168 170 166 161 167 165 172 176 189 206 185 202 221 211 236 218 199 192 244 226 223 179 202 218 220 227 305 301 300 276 249
214 242 287 165 148 117 112 160 168 216 81 101 147 160 166 162 170 177 160 159 158 152 157 156 161 172 179 188 222 238 244 236 226 243 216 196 206 228 229 229 243 251 238 237 253 290 299 293 261
312 239 308 292 137 109 122 86 161 209 110 161 235 176 176 167 171 174 170 161 167 170 172 175 173 196 211 211 241 256 257 256 252 236 189 168 200 213 232 259 264 252 229 245 228 265 266 269 258
296 68 5 304 323 172 78 230 229 216 143 183 339 191 168 163 162 168 164 165 163 167 172 167 177 185 193 207 240 267 297 291 266 234 177 176 201 227 235 260 272 264 256 273 268 281 240 266 266
2 56 10 334 325 310 153 197 229 179 188 172 191 262 164 158 157 162 160 165 162 167 163 171 181 182 187 210 259 287 313 312 264 169 210 236 232 236 247 260 286 275 257 283 232 287 268 269 253
98 74 354 311 288 306 293 238 193 191 204 199 176 237 149 162 164 159 163 168 169 172 168 170 175 183 179 185 264 329 13 44 178 186 171 236 224 238 253 270 289 291 282 274 230 200 240 253 270
155 104 230 265 260 313 269 265 183 184 190 203 47 108 149 217 169 168 171 172 171 170 172 179 185 181 197 208 249 254 8 108 129 257 164 222 231 245 257 268 288 305 312 332 335 304 224 251 255
172 137 225 241 256 251 276 278 196 159 181 161 160 181 189 191 179 173 171 168 173 172 174 175 189 184 197 200 215 181 160 179 179 135 332 285 188 167 226 287 304 359 351 338 318 279 250 253 249
244 159 187 244 235 286 268 297 86 28 137 170 176 197 178 184 186 172 170 167 172 173 173 173 189 199 196 187 183 185 162 144 168 174 308 293 302 341 9 15 8 354 329 336 334 320 289 270 247
254 258 218 240 154 209 165 248 66 153 238 170 195 224 186 187 177 168 166 167 169 173 169 175 187 192 189 192 200 187 174 159 213 172 134 209 263 33 17 95 12 353 346 342 340 320 286 271 262
259 288 294 311 314 262 308 89 238 128 251 238 264 227 210 182 160 165 167 168 173 170 168 173 177 188 186 194 191 190 189 215 166 150 145 170 207 70 16 5 15 4 8 6 12 0 355 332 301
259 269 310 331 352 359 295 209 222 184 210 256 227 254 162 153 157 163 162 165 167 154 163 164 168 168 188 181 178 200 201 100 140 131 310 307 229 152 88 26 36 20 18 13 9 15 17 17 7
274 16 333 349 323 215 300 15 254 226 222 186 177 133 137 147 148 101 151 159 140 135 152 155 153 162 180 166 188 207 215 195 158 80 37 85 131 117 76 65 50 33 24 26 31 17 15 21 28
240 170 163 210 204 264 343 271 193 63 111 79 120 152 134 111 98 105 259 140 132 136 152 144 148 151 183 179 178 184 260 130 94 112 57 76 93 80 77 69 54 28 56 44 41 34 26 26 29
269 180 222 203 285 100 232 333 159 30 14 350 176 120 129 137 153 182 199 135 135 147 144 144 147 147 171 182 180 161 83 52 77 97 66 85 82 79 73 72 66 52 54 56 50 40 40 45 40
185 214 299 335 259 286 49 298 218 52 358 38 2 82 97 126 150 153 145 141 145 151 156 148 142 142 146 161 155 134 32 343 10 156 96 107 96 93 86 80 64 61 54 59 56 47 55 56 48
258 265 267 143 142 181 182 245 196 194 120 90 260 291 109 113 130 142 144 148 149 142 140 137 142 143 139 146 146 135 88 74 131 138 145 103 105 99 88 81 76 73 73 67 63 56 51 53 56
193 215 186 131 281 130 165 270 148 72 45 133 222 281 117 128 144 138 137 127 128 125 138 145 144 138 135 138 136 132 136 119 120 125 112 121 111 96 97 94 87 82 76 76 79 74 62 61 68